Zurück zum Katalog

APPLE

AktivKommunikationGEO
NORAD 12545·PAYLOAD·🇮🇳 India

Gestartet Jun 19, 1981 von Guiana Space Centre

Loading…

TLE

AktuellSource: Space-Track

Epoche: Sep 14, 2026, 12:45 UTC

1 12545U 81057B   26257.53188873 -.00000313  00000-0  00000-0 0  9991
2 12545   6.8341 296.1512 0027176 230.9961 159.5121  1.00053968123282

Verfolge APPLE in Echtzeit mit AllMySat

Download on the App Store